Regional Weather Roundup
Issued by NWS State College, PA

Home | Current Version | Previous Version | Graphics & Text | Print | Product List | Glossary Off
Versions: 1 2 3 4 5 6 7 8 9 10 11 12 13 14 15 16 17 18 19 20 21 22 23 24 25 26 27 28 29 30 31 32 33 34 35 36 37 38 39 40 41 42 43 44 45 46 47 48 49 50

000
ASUS41 KCTP 021610
RWRCTP

REGIONAL WEATHER ROUNDUP
NATIONAL WEATHER SERVICE STATE COLLEGE PA
1200 PM EDT THU JUL 02 2015

Note: "fair" indicates few or no clouds below 12,000 feet with no
significant weather and/or obstructions to visibility.

* = STATION THAT DOES NOT REPORT PRECIPITATION /E.G. RAIN...SNOW...ETC/
    THUNDER OR FOG.

PAZ002>004-007>009-013>016-020>023-029>032-021700-
WESTERN PENNSYLVANIA

CITY           SKY/WX    TMP DP  RH WIND       PRES   REMARKS
ERIE           MOSUNNY   68  57  68 N13       29.99R
MEADVILLE      MOSUNNY   69  56  62 VRB6      29.99S
FRANKLIN*      PTSUNNY   66  55  68 N6        29.99S
NEW CASTLE     FAIR      74  61  63 CALM      29.97S
BEAVER COUNTY  PTSUNNY   70  61  73 CALM      29.98R
BUTLER*        PTSUNNY   70  59  68 NE3       29.98S
PITTSBURGH INT CLOUDY    71  60  68 N6        29.97R
PITTSBURGH     PTSUNNY   70  56  61 VRB5      29.95R
INDIANA*       MOSUNNY   72  63  73 VRB3      29.98F
LATROBE        PTSUNNY   72  61  68 SW7       29.96R
WASHINGTON CO* NOT AVBL
$$

PAZ004>006-010>012-017>019-024>028-033>037-041-042-045-046-049>053-021700-
CENTRAL PENNSYLVANIA

CITY           SKY/WX    TMP DP  RH WIND       PRES   REMARKS
BRADFORD       PTSUNNY   65  53  65 VRB5      29.99S
DUBOIS         PTSUNNY   73  56  54 NE6       29.96S
CLEARFIELD     MOSUNNY   71  56  58 CALM      29.96S
JOHNSTOWN      PTSUNNY   70  54  56 N8        29.97S
ALTOONA        PTSUNNY   71  59  65 N3        29.95S
STATE COLLEGE  MOSUNNY   72  59  64 CALM      29.95S
WILLIAMSPORT   MOSUNNY   74  57  55 MISG      29.92F
SELINSGROVE    CLOUDY    76  60  57 N3        29.93F
FT INDIANTOWN  PTSUNNY   75  61  62 VRB1      29.91F
CAPITAL CITY   PTSUNNY   76  60  57 CALM      29.91S
HARRISBURG     PTSUNNY   76  62  62 S3        29.90S
YORK           CLOUDY    75  61  61 CALM      29.91F
$$

PAZ038>040-043-044-047-048-054-055-060>062-067>071-021700-
EASTERN PENNSYLVANIA

CITY           SKY/WX    TMP DP  RH WIND       PRES   REMARKS
SCRANTON       MOSUNNY   74  57  55 NW6       29.94F
MOUNT POCONO   PTSUNNY   69  56  62 S5        29.96F
ALLENTOWN      MOSUNNY   77  60  55 N5        29.91F
QUAKERTOWN*    MOSUNNY   75  61  60 CALM      29.93S
READING        MOSUNNY   77  58  51 CALM      29.90S
LANCASTER      PTSUNNY   73  62  68 VRB6      29.91S
COATESVILLE    NOT AVBL
POTTSTOWN      PTSUNNY   72  64  76 E5        29.93S
BLUE BELL      NOT AVBL
DOYLESTOWN     PTSUNNY   70  62  76 CALM      29.91F
WILLOW GROVE   NOT AVBL
NORTH PHILA    CLOUDY    75  59  57 NE7       29.93F
PHILADELPHIA   CLOUDY    73  62  68 NE8       29.91S
$$



USA.gov is the U.S. government's official web portal to all federal, state and local government web resources and services.